Location: York
(31.8935°S, 116.7682°E)
Time: 14:37:39
(UTC+08:00)

Envisat - Pass Details

Date: 18 May 2021
Orbit: 764 x 766 km, 98.1° (Epoch: 18 June)

Event Time Altitude Azimuth Distance (km) Brightness Sun altitude
Rises 04:33:08 0° 26° (NNE) 3,217 6.6 -30.2°
Reaches altitude 10° 04:35:29 10° 31° (NNE) 2,299 5.9 -29.7°
Maximum altitude 04:40:23 51° 106° (ESE) 963 3.7 -28.7°
Enters shadow 04:43:07 25° 170° (S) 1,520 4.5 -28.1°
